NKS621 CYYZ-KATL

Flight info

Callsign NKS621
Flight time 1h 44m
Altitude 36000
Route BETES3FOXEE/06L BETES3 FOXEE Q145 HVQ HLRRY ONDRE1
Aircraft A321/M-SDE3FGHIRWY/LB1

Departure

Time 2026-05-08 00:36
Airport Toronto Pearson International Airport (CYYZ)

Arrival

Time 2026-05-08 02:21
Airport Hartsfield Jackson Atlanta International Airport (KATL)
Time Latitude Longitude Altitude Speed Heading
2026-05-07 23:44 43.68075 -79.61615 567 ft 0 kts 133°
2026-05-08 00:17 43.68080 -79.61623 567 ft 3 kts 133°
2026-05-08 00:17 43.68094 -79.61643 567 ft 3 kts 133°
2026-05-08 00:17 43.68109 -79.61663 573 ft 3 kts 127°
2026-05-08 00:18 43.68121 -79.61686 570 ft 3 kts 126°
2026-05-08 00:18 43.68133 -79.61709 574 ft 3 kts 126°
2026-05-08 00:18 43.68146 -79.61731 567 ft 3 kts 154°
2026-05-08 00:18 43.68157 -79.61737 568 ft 0 kts 172°
2026-05-08 00:25 43.68156 -79.61737 565 ft 1 kts 172°
2026-05-08 00:25 43.68112 -79.61755 567 ft 10 kts 212°
2026-05-08 00:26 43.68059 -79.61825 567 ft 11 kts 226°
2026-05-08 00:26 43.68007 -79.61904 569 ft 11 kts 235°
2026-05-08 00:26 43.67976 -79.62011 560 ft 13 kts 239°
2026-05-08 00:26 43.67919 -79.62098 567 ft 11 kts 226°
2026-05-08 00:27 43.67852 -79.62135 566 ft 12 kts 164°
2026-05-08 00:27 43.67786 -79.62062 571 ft 11 kts 136°
2026-05-08 00:27 43.67734 -79.61995 566 ft 10 kts 136°
2026-05-08 00:27 43.67678 -79.61922 565 ft 12 kts 136°
2026-05-08 00:28 43.67612 -79.61836 571 ft 13 kts 136°
2026-05-08 00:28 43.67583 -79.61740 566 ft 11 kts 62°
2026-05-08 00:28 43.67656 -79.61756 574 ft 13 kts 318°
2026-05-08 00:28 43.67727 -79.61851 563 ft 15 kts 316°
2026-05-08 00:29 43.67804 -79.61949 571 ft 15 kts 317°
2026-05-08 00:29 43.67880 -79.62046 571 ft 15 kts 321°
2026-05-08 00:29 43.67972 -79.62106 565 ft 14 kts 325°
2026-05-08 00:29 43.68036 -79.62184 565 ft 11 kts 316°
2026-05-08 00:30 43.68089 -79.62256 571 ft 10 kts 316°
2026-05-08 00:30 43.68134 -79.62317 567 ft 8 kts 316°
2026-05-08 00:30 43.68179 -79.62373 570 ft 12 kts 317°
2026-05-08 00:30 43.68248 -79.62454 567 ft 13 kts 323°
2026-05-08 00:31 43.68319 -79.62541 567 ft 16 kts 316°
2026-05-08 00:31 43.68402 -79.62650 568 ft 16 kts 317°
2026-05-08 00:31 43.68488 -79.62763 568 ft 18 kts 316°
2026-05-08 00:31 43.68578 -79.62880 563 ft 18 kts 318°
2026-05-08 00:32 43.68670 -79.62997 569 ft 18 kts 316°
2026-05-08 00:32 43.68755 -79.63110 566 ft 16 kts 316°
2026-05-08 00:32 43.68835 -79.63216 571 ft 16 kts 316°
2026-05-08 00:32 43.68911 -79.63314 572 ft 14 kts 316°
2026-05-08 00:33 43.68978 -79.63401 567 ft 13 kts 316°
2026-05-08 00:33 43.69051 -79.63498 566 ft 15 kts 315°
2026-05-08 00:33 43.69127 -79.63511 567 ft 13 kts 34°
2026-05-08 00:33 43.69213 -79.63428 571 ft 16 kts 13°
2026-05-08 00:34 43.69288 -79.63419 566 ft 0 kts
2026-05-08 00:34 43.69290 -79.63419 566 ft 2 kts
2026-05-08 00:34 43.69327 -79.63417 563 ft 9 kts 359°
2026-05-08 00:35 43.69394 -79.63476 562 ft 14 kts 303°
2026-05-08 00:35 43.69366 -79.63576 565 ft 0 kts 227°
2026-05-08 00:35 43.69357 -79.63589 566 ft 13 kts 226°
2026-05-08 00:35 43.69108 -79.63948 574 ft 87 kts 227°
2026-05-08 00:36 43.68536 -79.64777 571 ft 148 kts 226°
2026-05-08 00:36 43.67759 -79.65936 905 ft 167 kts 229°
2026-05-08 00:36 43.67020 -79.67187 1645 ft 171 kts 234°
2026-05-08 00:36 43.66279 -79.68559 2030 ft 189 kts 236°
2026-05-08 00:37 43.65476 -79.70101 2386 ft 206 kts 236°
2026-05-08 00:37 43.64630 -79.71800 2660 ft 227 kts 237°
2026-05-08 00:37 43.63700 -79.73728 3034 ft 249 kts 238°
2026-05-08 00:38 43.61744 -79.77724 4753 ft 253 kts 236°
2026-05-08 00:38 43.60504 -79.79457 5634 ft 256 kts 216°
2026-05-08 00:38 43.58829 -79.80360 6471 ft 266 kts 190°
2026-05-08 00:38 43.56956 -79.80257 7253 ft 273 kts 177°
2026-05-08 00:39 43.55053 -79.79967 8014 ft 277 kts 178°
2026-05-08 00:39 43.53125 -79.79702 8835 ft 280 kts 179°
2026-05-08 00:39 43.51203 -79.79459 9623 ft 283 kts 180°
2026-05-08 00:39 43.49229 -79.79223 10315 ft 290 kts 180°
2026-05-08 00:40 43.47140 -79.78986 10537 ft 313 kts 180°
2026-05-08 00:40 43.44891 -79.78732 10703 ft 336 kts 179°
2026-05-08 00:40 43.42497 -79.78457 11002 ft 352 kts 179°
2026-05-08 00:40 43.40009 -79.78159 11652 ft 357 kts 179°
2026-05-08 00:41 43.37562 -79.77859 12381 ft 359 kts 179°
2026-05-08 00:41 43.35058 -79.77552 13101 ft 363 kts 179°
2026-05-08 00:41 43.32538 -79.77243 13839 ft 365 kts 179°
2026-05-08 00:41 43.29997 -79.76936 14462 ft 369 kts 179°
2026-05-08 00:42 43.27427 -79.76645 15066 ft 372 kts 181°
2026-05-08 00:42 43.24844 -79.76776 15654 ft 372 kts 191°
2026-05-08 00:42 43.22311 -79.77505 16253 ft 373 kts 198°
2026-05-08 00:42 43.19780 -79.78388 16870 ft 378 kts 198°
2026-05-08 00:43 43.17215 -79.79264 17463 ft 382 kts 198°
2026-05-08 00:43 43.14623 -79.80145 18077 ft 386 kts 198°
2026-05-08 00:43 43.11991 -79.81038 18572 ft 392 kts 198°
2026-05-08 00:43 43.09330 -79.81937 19106 ft 396 kts 198°
2026-05-08 00:44 43.06644 -79.82839 19652 ft 399 kts 198°
2026-05-08 00:44 43.03936 -79.83745 20188 ft 402 kts 198°
2026-05-08 00:44 43.01208 -79.84663 20712 ft 405 kts 198°
2026-05-08 00:44 42.98460 -79.85593 21227 ft 408 kts 198°
2026-05-08 00:45 42.95692 -79.86528 21729 ft 411 kts 199°
2026-05-08 00:45 42.92906 -79.87468 22249 ft 414 kts 199°
2026-05-08 00:45 42.90102 -79.88413 22748 ft 417 kts 199°
2026-05-08 00:45 42.87276 -79.89359 23238 ft 420 kts 199°
2026-05-08 00:46 42.84431 -79.90314 23673 ft 422 kts 199°
2026-05-08 00:46 42.81560 -79.91232 24066 ft 426 kts 198°
2026-05-08 00:46 42.78645 -79.92042 24474 ft 429 kts 197°
2026-05-08 00:46 42.75701 -79.92773 24861 ft 431 kts 197°
2026-05-08 00:47 42.72737 -79.93471 25257 ft 433 kts 197°
2026-05-08 00:47 42.69760 -79.94174 25646 ft 435 kts 197°
2026-05-08 00:47 42.66779 -79.94899 26022 ft 436 kts 198°
2026-05-08 00:47 42.63784 -79.95652 26390 ft 438 kts 198°
2026-05-08 00:48 42.60787 -79.96421 26752 ft 440 kts 198°
2026-05-08 00:48 42.57774 -79.97197 27069 ft 441 kts 199°
2026-05-08 00:48 42.54755 -79.97970 27487 ft 442 kts 199°
2026-05-08 00:48 42.51731 -79.98746 27876 ft 443 kts 199°
2026-05-08 00:49 42.48696 -79.99519 28237 ft 445 kts 199°
2026-05-08 00:49 42.45650 -80.00287 28594 ft 446 kts 199°
2026-05-08 00:49 42.42606 -80.01047 29080 ft 444 kts 200°
2026-05-08 00:49 42.39578 -80.01800 29572 ft 441 kts 200°
2026-05-08 00:50 42.36566 -80.02548 30055 ft 439 kts 200°
2026-05-08 00:50 42.33566 -80.03302 30434 ft 438 kts 200°
2026-05-08 00:50 42.30575 -80.04060 30779 ft 437 kts 200°
2026-05-08 00:50 42.27588 -80.04818 31112 ft 437 kts 200°
2026-05-08 00:51 42.24623 -80.05648 31433 ft 431 kts 205°
2026-05-08 00:51 42.21779 -80.06831 31745 ft 427 kts 207°
2026-05-08 00:51 42.18946 -80.08040 32066 ft 427 kts 207°
2026-05-08 00:51 42.16113 -80.09238 32388 ft 425 kts 207°
2026-05-08 00:52 42.13294 -80.10425 32762 ft 424 kts 207°
2026-05-08 00:52 42.10480 -80.11614 33097 ft 423 kts 207°
2026-05-08 00:52 42.07676 -80.12803 33413 ft 423 kts 207°
2026-05-08 00:52 42.04868 -80.13990 33736 ft 423 kts 207°
2026-05-08 00:53 42.02061 -80.15171 34020 ft 423 kts 207°
2026-05-08 00:53 41.99290 -80.16328 34259 ft 423 kts 207°
2026-05-08 00:53 41.96482 -80.17502 34490 ft 422 kts 208°
2026-05-08 00:53 41.93682 -80.18680 34764 ft 421 kts 208°
2026-05-08 00:54 41.90882 -80.19857 35001 ft 422 kts 208°
2026-05-08 00:54 41.88083 -80.21035 35231 ft 422 kts 208°
2026-05-08 00:54 41.85283 -80.22217 35458 ft 422 kts 208°
2026-05-08 00:54 41.82475 -80.23403 35680 ft 423 kts 208°
2026-05-08 00:55 41.79666 -80.24585 35873 ft 424 kts 207°
2026-05-08 00:55 41.74025 -80.26934 35955 ft 424 kts 208°
2026-05-08 00:56 41.68392 -80.29282 35953 ft 424 kts 208°
2026-05-08 00:56 41.62762 -80.31632 35952 ft 424 kts 208°
2026-05-08 00:57 41.57130 -80.33978 35912 ft 424 kts 208°
2026-05-08 00:57 41.51513 -80.36299 35960 ft 422 kts 208°
2026-05-08 00:58 41.45902 -80.38621 35988 ft 422 kts 209°
2026-05-08 00:58 41.40290 -80.40953 36002 ft 422 kts 208°
2026-05-08 00:59 41.34675 -80.43273 35989 ft 422 kts 209°
2026-05-08 00:59 41.29062 -80.45581 36013 ft 422 kts 209°
2026-05-08 01:00 41.23445 -80.47878 36007 ft 422 kts 209°
2026-05-08 01:00 41.17843 -80.50197 36010 ft 421 kts 210°
2026-05-08 01:01 41.12327 -80.52696 35987 ft 417 kts 212°
2026-05-08 01:01 41.06869 -80.55285 36021 ft 416 kts 212°
2026-05-08 01:02 41.01411 -80.57840 36028 ft 416 kts 211°
2026-05-08 01:02 40.95938 -80.60349 35985 ft 416 kts 211°
2026-05-08 01:03 40.90463 -80.62841 36023 ft 416 kts 211°
2026-05-08 01:03 40.84989 -80.65340 36040 ft 416 kts 211°
2026-05-08 01:04 40.79520 -80.67836 36037 ft 416 kts 211°
2026-05-08 01:04 40.74050 -80.70329 35981 ft 416 kts 211°
2026-05-08 01:05 40.68580 -80.72817 35986 ft 416 kts 211°
2026-05-08 01:05 40.63096 -80.75303 35999 ft 417 kts 211°
2026-05-08 01:06 40.57651 -80.77766 36017 ft 417 kts 211°
2026-05-08 01:06 40.52163 -80.80255 35972 ft 417 kts 211°
2026-05-08 01:07 40.46675 -80.82731 35994 ft 417 kts 211°
2026-05-08 01:07 40.41184 -80.85197 36007 ft 417 kts 211°
2026-05-08 01:08 40.36581 -80.87267 36010 ft 417 kts 211°
2026-05-08 01:08 40.31085 -80.89736 36015 ft 418 kts 211°
2026-05-08 01:09 40.25588 -80.92203 36028 ft 418 kts 211°
2026-05-08 01:09 40.20087 -80.94668 36025 ft 418 kts 211°
2026-05-08 01:10 40.14581 -80.97134 36025 ft 418 kts 211°
2026-05-08 01:10 40.09077 -80.99594 35974 ft 418 kts 212°
2026-05-08 01:11 40.03580 -81.02039 36010 ft 417 kts 211°
2026-05-08 01:11 39.98079 -81.04476 36009 ft 417 kts 212°
2026-05-08 01:12 39.92589 -81.06912 36024 ft 417 kts 212°
2026-05-08 01:12 39.87104 -81.09349 35999 ft 416 kts 212°
2026-05-08 01:13 39.81624 -81.11773 36011 ft 416 kts 212°
2026-05-08 01:13 39.76187 -81.14175 36017 ft 415 kts 212°
2026-05-08 01:14 39.70716 -81.16584 36021 ft 415 kts 212°
2026-05-08 01:14 39.65258 -81.18972 35993 ft 413 kts 212°
2026-05-08 01:15 39.59825 -81.21362 36015 ft 412 kts 212°
2026-05-08 01:15 39.54392 -81.23759 36025 ft 412 kts 212°
2026-05-08 01:16 39.48977 -81.26168 36025 ft 411 kts 213°
2026-05-08 01:16 39.43587 -81.28624 36010 ft 410 kts 213°
2026-05-08 01:17 39.38212 -81.31073 36016 ft 410 kts 213°
2026-05-08 01:17 39.32822 -81.33507 36038 ft 410 kts 213°
2026-05-08 01:18 39.27437 -81.35929 36042 ft 410 kts 213°
2026-05-08 01:18 39.22058 -81.38342 36003 ft 408 kts 213°
2026-05-08 01:19 39.16704 -81.40750 36016 ft 407 kts 213°
2026-05-08 01:19 39.11354 -81.43152 36026 ft 407 kts 213°
2026-05-08 01:20 39.05997 -81.45547 36012 ft 407 kts 213°
2026-05-08 01:20 39.00644 -81.47935 35990 ft 407 kts 213°
2026-05-08 01:21 38.95301 -81.50316 36013 ft 406 kts 213°
2026-05-08 01:21 38.89970 -81.52690 36025 ft 405 kts 213°
2026-05-08 01:22 38.84641 -81.55055 36027 ft 405 kts 213°
2026-05-08 01:22 38.79329 -81.57414 35987 ft 403 kts 213°
2026-05-08 01:23 38.74039 -81.59767 36002 ft 402 kts 214°
2026-05-08 01:23 38.68754 -81.62118 36023 ft 402 kts 213°
2026-05-08 01:24 38.63465 -81.64451 36022 ft 402 kts 213°
2026-05-08 01:24 38.58185 -81.66774 35983 ft 401 kts 214°
2026-05-08 01:25 38.52905 -81.69099 35995 ft 401 kts 214°
2026-05-08 01:25 38.47661 -81.71413 36006 ft 401 kts 214°
2026-05-08 01:26 38.42383 -81.73736 36019 ft 401 kts 214°
2026-05-08 01:26 38.37103 -81.76051 36020 ft 401 kts 214°
2026-05-08 01:27 38.31827 -81.78359 36009 ft 401 kts 214°
2026-05-08 01:27 38.26547 -81.80678 36021 ft 401 kts 214°
2026-05-08 01:28 38.21268 -81.82992 36021 ft 401 kts 214°
2026-05-08 01:28 38.15995 -81.85305 36029 ft 401 kts 214°
2026-05-08 01:29 38.10725 -81.87607 36032 ft 400 kts 214°
2026-05-08 01:29 38.05461 -81.89905 36039 ft 399 kts 214°
2026-05-08 01:30 38.00202 -81.92183 36037 ft 399 kts 214°
2026-05-08 01:30 37.94944 -81.94468 36029 ft 400 kts 214°
2026-05-08 01:31 37.89683 -81.96771 35983 ft 400 kts 215°
2026-05-08 01:31 37.84419 -81.99055 36017 ft 400 kts 214°
2026-05-08 01:32 37.79153 -82.01328 36029 ft 400 kts 214°
2026-05-08 01:32 37.73931 -82.03583 36028 ft 398 kts 214°
2026-05-08 01:33 37.68648 -82.05869 35950 ft 399 kts 214°
2026-05-08 01:33 37.63420 -82.08113 36004 ft 396 kts 216°
2026-05-08 01:34 37.58219 -82.10352 36021 ft 394 kts 216°
2026-05-08 01:34 37.53059 -82.12571 36028 ft 394 kts 216°
2026-05-08 01:35 37.47866 -82.14803 36026 ft 394 kts 216°
2026-05-08 01:35 37.42680 -82.17024 35986 ft 393 kts 216°
2026-05-08 01:36 37.37499 -82.19236 36003 ft 393 kts 216°
2026-05-08 01:36 37.32320 -82.21454 36012 ft 394 kts 216°
2026-05-08 01:37 37.27138 -82.23671 36018 ft 394 kts 216°
2026-05-08 01:37 37.21947 -82.25884 35955 ft 394 kts 216°
2026-05-08 01:38 37.16765 -82.28075 35998 ft 393 kts 216°
2026-05-08 01:38 37.11587 -82.30276 36013 ft 393 kts 216°
2026-05-08 01:39 37.06479 -82.32580 36014 ft 381 kts 220°
2026-05-08 01:39 37.01655 -82.35324 36020 ft 381 kts 221°
2026-05-08 01:40 36.96825 -82.38066 35978 ft 380 kts 220°
2026-05-08 01:40 36.92004 -82.40789 35998 ft 381 kts 220°
2026-05-08 01:41 36.87169 -82.43515 36003 ft 381 kts 220°
2026-05-08 01:41 36.82339 -82.46233 36012 ft 381 kts 220°
2026-05-08 01:42 36.77515 -82.48954 36011 ft 380 kts 220°
2026-05-08 01:42 36.72694 -82.51667 35993 ft 380 kts 220°
2026-05-08 01:43 36.67874 -82.54372 36003 ft 380 kts 220°
2026-05-08 01:43 36.63050 -82.57078 36006 ft 381 kts 220°
2026-05-08 01:44 36.58216 -82.59781 36011 ft 381 kts 220°
2026-05-08 01:44 36.53388 -82.62477 36015 ft 380 kts 220°
2026-05-08 01:45 36.48578 -82.65169 35983 ft 379 kts 220°
2026-05-08 01:45 36.43765 -82.67849 36004 ft 379 kts 220°
2026-05-08 01:46 36.38949 -82.70527 36018 ft 379 kts 220°
2026-05-08 01:46 36.34128 -82.73213 36039 ft 380 kts 220°
2026-05-08 01:47 36.29299 -82.75899 36053 ft 380 kts 220°
2026-05-08 01:47 36.24476 -82.78576 36025 ft 379 kts 220°
2026-05-08 01:48 36.17353 -82.82730 36042 ft 377 kts 221°
2026-05-08 01:48 36.12636 -82.85546 36047 ft 376 kts 221°
2026-05-08 01:49 36.07914 -82.88344 36049 ft 377 kts 221°
2026-05-08 01:49 36.03209 -82.91104 35991 ft 377 kts 220°
2026-05-08 01:50 35.98440 -82.93891 36002 ft 377 kts 221°
2026-05-08 01:50 35.93740 -82.96639 36005 ft 376 kts 221°
2026-05-08 01:51 35.88977 -82.99423 36010 ft 376 kts 221°
2026-05-08 01:51 35.84245 -83.02188 36023 ft 377 kts 220°
2026-05-08 01:52 35.80302 -83.04481 36026 ft 376 kts 220°
2026-05-08 01:52 35.75564 -83.07230 36034 ft 377 kts 220°
2026-05-08 01:53 35.70063 -83.10432 36033 ft 376 kts 221°
2026-05-08 01:53 35.66104 -83.12731 36020 ft 374 kts 221°
2026-05-08 01:54 35.61384 -83.15473 36027 ft 375 kts 221°
2026-05-08 01:54 35.56659 -83.18217 36036 ft 377 kts 220°
2026-05-08 01:55 35.51915 -83.20959 35998 ft 377 kts 220°
2026-05-08 01:55 35.47170 -83.23704 36010 ft 377 kts 220°
2026-05-08 01:56 35.42428 -83.26439 36008 ft 377 kts 220°
2026-05-08 01:56 35.37657 -83.29155 36021 ft 379 kts 220°
2026-05-08 01:57 35.32868 -83.31853 36037 ft 380 kts 220°
2026-05-08 01:57 35.28099 -83.34537 35934 ft 380 kts 219°
2026-05-08 01:58 35.25699 -83.35887 35673 ft 379 kts 219°
2026-05-08 01:58 35.23304 -83.37232 35424 ft 379 kts 219°
2026-05-08 01:58 35.20878 -83.38597 35186 ft 378 kts 219°
2026-05-08 01:58 35.18488 -83.39943 34946 ft 378 kts 219°
2026-05-08 01:59 35.16097 -83.41291 34710 ft 378 kts 219°
2026-05-08 01:59 35.13707 -83.42635 34476 ft 379 kts 219°
2026-05-08 01:59 35.11316 -83.43977 34243 ft 378 kts 219°
2026-05-08 01:59 35.08961 -83.45301 33918 ft 378 kts 219°
2026-05-08 02:00 35.06557 -83.46661 32989 ft 383 kts 219°
2026-05-08 02:00 35.04132 -83.48051 32256 ft 387 kts 219°
2026-05-08 02:00 35.01687 -83.49466 31455 ft 391 kts 219°
2026-05-08 02:00 34.99216 -83.50903 30606 ft 396 kts 220°
2026-05-08 02:01 34.96711 -83.52359 29627 ft 401 kts 219°
2026-05-08 02:01 34.94149 -83.53842 28662 ft 403 kts 218°
2026-05-08 02:01 34.91638 -83.55289 27761 ft 406 kts 218°
2026-05-08 02:01 34.89075 -83.56760 26821 ft 409 kts 217°
2026-05-08 02:02 34.86510 -83.58224 26253 ft 403 kts 216°
2026-05-08 02:02 34.83981 -83.59660 25626 ft 400 kts 216°
2026-05-08 02:02 34.81470 -83.61084 24960 ft 396 kts 216°
2026-05-08 02:02 34.78985 -83.62495 24381 ft 392 kts 215°
2026-05-08 02:03 34.76522 -83.63898 23774 ft 390 kts 215°
2026-05-08 02:03 34.74074 -83.65299 23098 ft 387 kts 215°
2026-05-08 02:03 34.71652 -83.66687 22505 ft 382 kts 215°
2026-05-08 02:03 34.69258 -83.68060 21915 ft 378 kts 215°
2026-05-08 02:04 34.66890 -83.69418 21346 ft 375 kts 215°
2026-05-08 02:04 34.64537 -83.70766 20773 ft 373 kts 215°
2026-05-08 02:04 34.62195 -83.72107 20216 ft 371 kts 214°
2026-05-08 02:04 34.59869 -83.73440 19677 ft 369 kts 214°
2026-05-08 02:05 34.57548 -83.74764 19132 ft 368 kts 214°
2026-05-08 02:05 34.55239 -83.76078 18625 ft 365 kts 214°
2026-05-08 02:05 34.52953 -83.77382 18101 ft 363 kts 214°
2026-05-08 02:05 34.50675 -83.78684 17560 ft 360 kts 214°
2026-05-08 02:06 34.48423 -83.79973 17072 ft 357 kts 214°
2026-05-08 02:06 34.46183 -83.81254 16590 ft 356 kts 214°
2026-05-08 02:06 34.43947 -83.82529 16131 ft 354 kts 214°
2026-05-08 02:06 34.41724 -83.83791 15647 ft 353 kts 213°
2026-05-08 02:07 34.39508 -83.85051 15161 ft 351 kts 213°
2026-05-08 02:07 34.37279 -83.86306 14686 ft 361 kts 213°
2026-05-08 02:07 34.34988 -83.87646 14237 ft 368 kts 214°
2026-05-08 02:07 34.32714 -83.89033 13752 ft 363 kts 214°
2026-05-08 02:08 34.30491 -83.90417 13204 ft 356 kts 216°
2026-05-08 02:08 34.28311 -83.91786 12694 ft 350 kts 215°
2026-05-08 02:08 34.26208 -83.93099 12177 ft 327 kts 215°
2026-05-08 02:08 34.24255 -83.94303 11684 ft 305 kts 216°
2026-05-08 02:09 34.22423 -83.95431 11192 ft 287 kts 216°
2026-05-08 02:09 34.20686 -83.96492 10712 ft 278 kts 213°
2026-05-08 02:09 34.18824 -83.97264 9752 ft 288 kts 204°
2026-05-08 02:09 34.16927 -83.97894 9253 ft 275 kts 204°
2026-05-08 02:10 34.15077 -83.98500 9091 ft 275 kts 204°
2026-05-08 02:10 34.13232 -83.99114 9005 ft 274 kts 204°
2026-05-08 02:10 34.11389 -83.99730 9018 ft 275 kts 204°
2026-05-08 02:10 34.09544 -84.00346 9022 ft 275 kts 204°
2026-05-08 02:11 34.07702 -84.00960 9027 ft 275 kts 204°
2026-05-08 02:11 34.05853 -84.01574 9017 ft 275 kts 204°
2026-05-08 02:11 34.04006 -84.02186 9027 ft 275 kts 204°
2026-05-08 02:11 34.02164 -84.02799 9027 ft 274 kts 204°
2026-05-08 02:12 34.00331 -84.03409 8831 ft 272 kts 204°
2026-05-08 02:12 33.98513 -84.04018 8449 ft 271 kts 204°
2026-05-08 02:12 33.96699 -84.04637 8066 ft 270 kts 204°
2026-05-08 02:12 33.94895 -84.05268 7688 ft 270 kts 204°
2026-05-08 02:13 33.93160 -84.06042 7346 ft 262 kts 212°
2026-05-08 02:13 33.91537 -84.07021 6999 ft 260 kts 214°
2026-05-08 02:13 33.89929 -84.08033 6631 ft 261 kts 214°
2026-05-08 02:13 33.88330 -84.09056 6278 ft 260 kts 214°
2026-05-08 02:14 33.86741 -84.10084 5889 ft 260 kts 214°
2026-05-08 02:14 33.85150 -84.11124 5473 ft 261 kts 214°
2026-05-08 02:14 33.83553 -84.12179 5068 ft 263 kts 214°
2026-05-08 02:14 33.81956 -84.13249 4678 ft 263 kts 214°
2026-05-08 02:15 33.80383 -84.14321 4283 ft 262 kts 213°
2026-05-08 02:15 33.78789 -84.15431 3916 ft 261 kts 214°
2026-05-08 02:15 33.77222 -84.16530 3614 ft 258 kts 214°
2026-05-08 02:15 33.75697 -84.17597 3485 ft 249 kts 214°
2026-05-08 02:16 33.74233 -84.18618 3356 ft 238 kts 215°
2026-05-08 02:16 33.73007 -84.19842 3196 ft 224 kts 232°
2026-05-08 02:16 33.71979 -84.21198 3067 ft 214 kts 232°
2026-05-08 02:16 33.71008 -84.22482 2989 ft 208 kts 232°
2026-05-08 02:17 33.70043 -84.23765 3006 ft 206 kts 232°
2026-05-08 02:17 33.69070 -84.25062 3010 ft 206 kts 232°
2026-05-08 02:17 33.68126 -84.26320 3013 ft 206 kts 232°
2026-05-08 02:17 33.67172 -84.27590 3005 ft 200 kts 232°
2026-05-08 02:18 33.66281 -84.28771 2917 ft 182 kts 233°
2026-05-08 02:18 33.65469 -84.29852 2773 ft 168 kts 234°
2026-05-08 02:18 33.64986 -84.31035 2603 ft 154 kts 264°
2026-05-08 02:18 33.64949 -84.32261 2458 ft 143 kts 275°
2026-05-08 02:19 33.64950 -84.33430 2248 ft 139 kts 275°
2026-05-08 02:19 33.64943 -84.34595 1993 ft 140 kts 275°
2026-05-08 02:19 33.64934 -84.35742 1900 ft 137 kts 274°
2026-05-08 02:19 33.64935 -84.36893 1681 ft 138 kts 274°
2026-05-08 02:20 33.64935 -84.38046 1513 ft 137 kts 272°
2026-05-08 02:20 33.64945 -84.39186 1345 ft 137 kts 271°
2026-05-08 02:20 33.64945 -84.40335 1161 ft 137 kts 272°
2026-05-08 02:20 33.64954 -84.41475 1008 ft 132 kts 270°
2026-05-08 02:21 33.64952 -84.42319 1007 ft 60 kts 270°
2026-05-08 02:21 33.64944 -84.42574 1007 ft 23 kts 261°
2026-05-08 02:21 33.64895 -84.42755 1007 ft 23 kts 241°
2026-05-08 02:21 33.64818 -84.42864 1006 ft 9 kts 208°
2026-05-08 02:22 33.64779 -84.42876 1007 ft 0 kts 182°
2026-05-08 02:23 33.64775 -84.42876 1007 ft 3 kts 181°
2026-05-08 02:23 33.64702 -84.42875 1008 ft 16 kts 175°
2026-05-08 02:23 33.64583 -84.42817 1007 ft 20 kts 152°
2026-05-08 02:23 33.64468 -84.42782 1006 ft 16 kts 199°
2026-05-08 02:24 33.64358 -84.42806 1006 ft 17 kts 180°
2026-05-08 02:24 33.64234 -84.42805 1006 ft 19 kts 179°
2026-05-08 02:24 33.64136 -84.42806 1006 ft 13 kts 180°
2026-05-08 02:24 33.64041 -84.42806 1006 ft 14 kts 180°
2026-05-08 02:25 33.63936 -84.42806 1006 ft 15 kts 180°
2026-05-08 02:25 33.63835 -84.42807 1006 ft 10 kts 185°
2026-05-08 02:25 33.63806 -84.42862 1006 ft 3 kts 272°
2026-05-08 02:25 33.63810 -84.42877 1006 ft 0 kts 290°